DAL1343 SAVC-SAVE

Flight info

Callsign DAL1343
Flight time 1h 2m
Altitude 32000
Route EGEGU2C EGEGU DCT IROLA DCT ASUTO DCT TEPUB DCT GIMBI
Aircraft B752/M-SDE3FHIM3RW/LB1

Departure

Time 2026-04-16 02:16
Airport General Enrique Mosconi International Airport (SAVC)

Arrival

Time 2026-04-16 03:18
Airport Esquel Brigadier Antonio Parodi International Airport (SAVE)
Time Latitude Longitude Altitude Speed Heading
2026-04-16 02:00 -45.78951 -67.46860 178 ft 0 kts 206°
2026-04-16 02:02 -45.78945 -67.46856 178 ft 3 kts 206°
2026-04-16 02:03 -45.78930 -67.46843 177 ft 2 kts 233°
2026-04-16 02:03 -45.78926 -67.46825 177 ft 0 kts 271°
2026-04-16 02:08 -45.78926 -67.46826 177 ft 1 kts 271°
2026-04-16 02:09 -45.78925 -67.46850 177 ft 3 kts 281°
2026-04-16 02:09 -45.78919 -67.46891 178 ft 4 kts 280°
2026-04-16 02:09 -45.78913 -67.46941 179 ft 5 kts 275°
2026-04-16 02:09 -45.78912 -67.46995 180 ft 5 kts 268°
2026-04-16 02:10 -45.78913 -67.47050 181 ft 5 kts 269°
2026-04-16 02:10 -45.78914 -67.47103 182 ft 4 kts 269°
2026-04-16 02:10 -45.78914 -67.47146 184 ft 3 kts 269°
2026-04-16 02:10 -45.78904 -67.47179 185 ft 6 kts 312°
2026-04-16 02:11 -45.78857 -67.47213 184 ft 9 kts 334°
2026-04-16 02:11 -45.78827 -67.47305 184 ft 11 kts 269°
2026-04-16 02:11 -45.78837 -67.47405 188 ft 7 kts 258°
2026-04-16 02:11 -45.78846 -67.47464 191 ft 4 kts 257°
2026-04-16 02:12 -45.78852 -67.47505 192 ft 4 kts 257°
2026-04-16 02:12 -45.78859 -67.47554 193 ft 6 kts 262°
2026-04-16 02:12 -45.78867 -67.47628 195 ft 8 kts 260°
2026-04-16 02:12 -45.78879 -67.47719 197 ft 10 kts 257°
2026-04-16 02:13 -45.78893 -67.47822 199 ft 11 kts 259°
2026-04-16 02:13 -45.78909 -67.47939 202 ft 12 kts 259°
2026-04-16 02:13 -45.78925 -67.48070 204 ft 14 kts 259°
2026-04-16 02:13 -45.78910 -67.48148 206 ft 3 kts 297°
2026-04-16 02:14 -45.78896 -67.48186 206 ft 4 kts 304°
2026-04-16 02:14 -45.78873 -67.48212 206 ft 0 kts 333°
2026-04-16 02:14 -45.78872 -67.48213 206 ft 0 kts 333°
2026-04-16 02:14 -45.78852 -67.48228 206 ft 5 kts 332°
2026-04-16 02:15 -45.78813 -67.48246 205 ft 7 kts 351°
2026-04-16 02:15 -45.78763 -67.48239 203 ft 7 kts 38°
2026-04-16 02:15 -45.78740 -67.48180 203 ft 0 kts 75°
2026-04-16 02:15 -45.78729 -67.48113 202 ft 24 kts 78°
2026-04-16 02:16 -45.78629 -67.47379 183 ft 126 kts 76°
2026-04-16 02:16 -45.78417 -67.45809 345 ft 185 kts 79°
2026-04-16 02:16 -45.78398 -67.43932 1429 ft 205 kts 88°
2026-04-16 02:16 -45.78605 -67.41652 1890 ft 253 kts 86°
2026-04-16 02:17 -45.78274 -67.39371 2149 ft 220 kts 51°
2026-04-16 02:17 -45.77202 -67.37943 2583 ft 215 kts 18°
2026-04-16 02:17 -45.75762 -67.37691 2999 ft 209 kts 344°
2026-04-16 02:17 -45.74537 -67.38712 3411 ft 208 kts 313°
2026-04-16 02:18 -45.73718 -67.40455 3815 ft 215 kts 307°
2026-04-16 02:18 -45.72919 -67.42245 4187 ft 218 kts 307°
2026-04-16 02:18 -45.72002 -67.43951 4558 ft 216 kts 323°
2026-04-16 02:18 -45.70636 -67.44785 4970 ft 218 kts 353°
2026-04-16 02:19 -45.69113 -67.44675 5372 ft 225 kts
2026-04-16 02:19 -45.67540 -67.44381 5722 ft 231 kts
2026-04-16 02:19 -45.65917 -67.44080 5771 ft 236 kts
2026-04-16 02:19 -45.64336 -67.43741 5754 ft 230 kts 11°
2026-04-16 02:20 -45.62942 -67.42545 5787 ft 240 kts 41°
2026-04-16 02:20 -45.61945 -67.40592 5779 ft 252 kts 50°
2026-04-16 02:20 -45.60991 -67.38468 5771 ft 252 kts 50°
2026-04-16 02:20 -45.59994 -67.36481 5762 ft 242 kts 36°
2026-04-16 02:21 -45.58574 -67.35371 5795 ft 230 kts
2026-04-16 02:21 -45.56993 -67.35294 5790 ft 227 kts 353°
2026-04-16 02:21 -45.55422 -67.35448 5769 ft 225 kts 353°
2026-04-16 02:21 -45.53864 -67.35604 5776 ft 225 kts 353°
2026-04-16 02:22 -45.52302 -67.35762 5774 ft 226 kts 353°
2026-04-16 02:22 -45.50731 -67.35928 5772 ft 226 kts 352°
2026-04-16 02:22 -45.49179 -67.36083 5768 ft 225 kts 353°
2026-04-16 02:22 -45.47601 -67.36247 5772 ft 224 kts 352°
2026-04-16 02:23 -45.46059 -67.36400 5769 ft 224 kts 353°
2026-04-16 02:23 -45.44559 -67.36890 5776 ft 223 kts 330°
2026-04-16 02:23 -45.43462 -67.38432 5798 ft 228 kts 303°
2026-04-16 02:23 -45.42674 -67.40434 5776 ft 231 kts 306°
2026-04-16 02:24 -45.41740 -67.42314 5778 ft 237 kts 310°
2026-04-16 02:24 -45.40716 -67.44166 5772 ft 237 kts 311°
2026-04-16 02:24 -45.39661 -67.45946 5770 ft 235 kts 313°
2026-04-16 02:24 -45.38593 -67.47675 5775 ft 235 kts 314°
2026-04-16 02:25 -45.37487 -67.49417 5771 ft 236 kts 314°
2026-04-16 02:25 -45.36385 -67.51124 5769 ft 235 kts 314°
2026-04-16 02:25 -45.35261 -67.52846 5766 ft 235 kts 314°
2026-04-16 02:25 -45.34155 -67.54533 5760 ft 235 kts 315°
2026-04-16 02:26 -45.33039 -67.56224 5762 ft 236 kts 315°
2026-04-16 02:26 -45.31903 -67.57941 5760 ft 236 kts 314°
2026-04-16 02:26 -45.30783 -67.59634 5764 ft 235 kts 315°
2026-04-16 02:26 -45.29665 -67.61318 5762 ft 236 kts 315°
2026-04-16 02:27 -45.28534 -67.63021 5756 ft 237 kts 315°
2026-04-16 02:27 -45.27409 -67.64713 5759 ft 237 kts 315°
2026-04-16 02:27 -45.26275 -67.66418 5759 ft 237 kts 315°
2026-04-16 02:27 -45.25138 -67.68124 5760 ft 238 kts 315°
2026-04-16 02:28 -45.24013 -67.69815 5758 ft 236 kts 315°
2026-04-16 02:28 -45.22882 -67.71511 5759 ft 236 kts 315°
2026-04-16 02:28 -45.21764 -67.73186 5756 ft 236 kts 315°
2026-04-16 02:28 -45.20619 -67.74902 5755 ft 237 kts 315°
2026-04-16 02:29 -45.19501 -67.76575 5754 ft 238 kts 315°
2026-04-16 02:29 -45.18352 -67.78294 5754 ft 238 kts 315°
2026-04-16 02:29 -45.17222 -67.79985 5757 ft 238 kts 315°
2026-04-16 02:29 -45.16079 -67.81692 5762 ft 238 kts 315°
2026-04-16 02:30 -45.14933 -67.83405 5765 ft 238 kts 315°
2026-04-16 02:30 -45.13789 -67.85111 5772 ft 239 kts 315°
2026-04-16 02:30 -45.12659 -67.86797 5781 ft 238 kts 315°
2026-04-16 02:30 -45.11518 -67.88496 5787 ft 240 kts 315°
2026-04-16 02:31 -45.10369 -67.90210 5786 ft 239 kts 315°
2026-04-16 02:31 -45.09232 -67.91903 5781 ft 239 kts 315°
2026-04-16 02:31 -45.08082 -67.93613 5782 ft 240 kts 315°
2026-04-16 02:31 -45.06927 -67.95330 5778 ft 240 kts 315°
2026-04-16 02:32 -45.05778 -67.97038 5781 ft 238 kts 315°
2026-04-16 02:32 -45.04646 -67.98720 5782 ft 237 kts 315°
2026-04-16 02:32 -45.03509 -68.00407 5777 ft 238 kts 315°
2026-04-16 02:32 -45.02365 -68.02103 5780 ft 239 kts 315°
2026-04-16 02:33 -45.01220 -68.03799 5787 ft 240 kts 315°
2026-04-16 02:33 -45.00068 -68.05506 5784 ft 239 kts 316°
2026-04-16 02:33 -44.98761 -68.06902 6071 ft 229 kts 328°
2026-04-16 02:33 -44.97403 -68.08093 6674 ft 239 kts 327°
2026-04-16 02:34 -44.95980 -68.09362 7272 ft 246 kts 328°
2026-04-16 02:34 -44.94533 -68.10636 7857 ft 246 kts 328°
2026-04-16 02:34 -44.93064 -68.11925 8446 ft 249 kts 328°
2026-04-16 02:34 -44.91588 -68.13216 9028 ft 251 kts 328°
2026-04-16 02:35 -44.90111 -68.14504 9599 ft 254 kts 329°
2026-04-16 02:35 -44.88604 -68.15818 10186 ft 256 kts 329°
2026-04-16 02:35 -44.87110 -68.17117 10765 ft 257 kts 328°
2026-04-16 02:35 -44.85580 -68.18448 11358 ft 258 kts 329°
2026-04-16 02:36 -44.84068 -68.19762 11938 ft 260 kts 329°
2026-04-16 02:36 -44.82509 -68.21115 12524 ft 262 kts 329°
2026-04-16 02:36 -44.80975 -68.22446 13102 ft 264 kts 329°
2026-04-16 02:36 -44.79407 -68.23805 13681 ft 265 kts 329°
2026-04-16 02:37 -44.77851 -68.25153 14269 ft 267 kts 329°
2026-04-16 02:37 -44.76257 -68.26533 14861 ft 270 kts 329°
2026-04-16 02:37 -44.74677 -68.27901 15438 ft 271 kts 329°
2026-04-16 02:37 -44.73065 -68.29295 16022 ft 274 kts 329°
2026-04-16 02:38 -44.71438 -68.30701 16616 ft 276 kts 329°
2026-04-16 02:38 -44.69801 -68.32115 17199 ft 278 kts 329°
2026-04-16 02:38 -44.68164 -68.33527 17774 ft 281 kts 329°
2026-04-16 02:38 -44.66494 -68.34967 18358 ft 284 kts 328°
2026-04-16 02:39 -44.64808 -68.36420 18947 ft 287 kts 328°
2026-04-16 02:39 -44.63120 -68.37874 19535 ft 289 kts 328°
2026-04-16 02:39 -44.61394 -68.39359 20132 ft 291 kts 328°
2026-04-16 02:39 -44.59677 -68.40836 20713 ft 293 kts 328°
2026-04-16 02:40 -44.57931 -68.42336 21304 ft 295 kts 328°
2026-04-16 02:40 -44.56182 -68.43838 21899 ft 296 kts 328°
2026-04-16 02:40 -44.54441 -68.45333 22491 ft 296 kts 327°
2026-04-16 02:40 -44.52697 -68.46828 23080 ft 296 kts 328°
2026-04-16 02:41 -44.50958 -68.48319 23669 ft 295 kts 328°
2026-04-16 02:41 -44.49199 -68.49825 24263 ft 294 kts 327°
2026-04-16 02:41 -44.47472 -68.51303 24853 ft 292 kts 327°
2026-04-16 02:41 -44.45753 -68.52773 25446 ft 290 kts 327°
2026-04-16 02:42 -44.44054 -68.54224 26035 ft 287 kts 327°
2026-04-16 02:42 -44.42357 -68.55674 26630 ft 283 kts 326°
2026-04-16 02:42 -44.40714 -68.57077 27209 ft 278 kts 327°
2026-04-16 02:42 -44.39078 -68.58472 27800 ft 272 kts 326°
2026-04-16 02:43 -44.37499 -68.59817 28376 ft 265 kts 326°
2026-04-16 02:43 -44.35961 -68.61127 28950 ft 257 kts 326°
2026-04-16 02:43 -44.34470 -68.62397 29475 ft 249 kts 326°
2026-04-16 02:43 -44.33020 -68.63630 29903 ft 244 kts 326°
2026-04-16 02:44 -44.31566 -68.64867 30230 ft 243 kts 326°
2026-04-16 02:44 -44.30136 -68.66083 30466 ft 244 kts 327°
2026-04-16 02:44 -44.28685 -68.67317 30672 ft 247 kts 327°
2026-04-16 02:44 -44.27191 -68.68585 30886 ft 250 kts 327°
2026-04-16 02:45 -44.25711 -68.69841 31105 ft 253 kts 327°
2026-04-16 02:45 -44.24191 -68.71130 31315 ft 256 kts 327°
2026-04-16 02:45 -44.22671 -68.72417 31531 ft 259 kts 326°
2026-04-16 02:45 -44.21132 -68.73721 31744 ft 262 kts 326°
2026-04-16 02:46 -44.19543 -68.75066 31801 ft 270 kts 326°
2026-04-16 02:46 -44.17923 -68.76437 31805 ft 279 kts 327°
2026-04-16 02:46 -44.16235 -68.77864 31807 ft 289 kts 327°
2026-04-16 02:46 -44.14494 -68.79333 31809 ft 299 kts 327°
2026-04-16 02:47 -44.10810 -68.82441 31811 ft 320 kts 327°
2026-04-16 02:47 -44.06888 -68.85743 31806 ft 341 kts 327°
2026-04-16 02:48 -44.02721 -68.89246 31806 ft 362 kts 327°
2026-04-16 02:48 -43.98306 -68.92952 31798 ft 383 kts 327°
2026-04-16 02:49 -43.93634 -68.96866 31802 ft 402 kts 327°
2026-04-16 02:49 -43.88759 -69.00942 31806 ft 421 kts 327°
2026-04-16 02:50 -43.83637 -69.05215 31815 ft 438 kts 327°
2026-04-16 02:50 -43.78346 -69.09622 31817 ft 453 kts 327°
2026-04-16 02:51 -43.72930 -69.14121 31823 ft 456 kts 327°
2026-04-16 02:51 -43.67501 -69.18623 31831 ft 454 kts 327°
2026-04-16 02:52 -43.62087 -69.23105 31833 ft 456 kts 327°
2026-04-16 02:52 -43.56643 -69.27601 31837 ft 455 kts 327°
2026-04-16 02:53 -43.51244 -69.32050 31838 ft 449 kts 327°
2026-04-16 02:53 -43.48624 -69.34206 31832 ft 437 kts 327°
2026-04-16 02:53 -43.46032 -69.36338 31552 ft 438 kts 327°
2026-04-16 02:54 -43.43395 -69.38505 31078 ft 443 kts 327°
2026-04-16 02:54 -43.40740 -69.40683 30600 ft 442 kts 327°
2026-04-16 02:54 -43.38141 -69.42813 30130 ft 439 kts 327°
2026-04-16 02:54 -43.35533 -69.44947 29650 ft 435 kts 327°
2026-04-16 02:55 -43.32937 -69.47072 29180 ft 431 kts 328°
2026-04-16 02:55 -43.30384 -69.49158 28713 ft 427 kts 328°
2026-04-16 02:55 -43.27839 -69.51236 28242 ft 423 kts 328°
2026-04-16 02:55 -43.25340 -69.53273 27774 ft 420 kts 328°
2026-04-16 02:56 -43.22826 -69.55322 27306 ft 417 kts 328°
2026-04-16 02:56 -43.20361 -69.57328 26834 ft 415 kts 328°
2026-04-16 02:56 -43.17897 -69.59333 26367 ft 413 kts 328°
2026-04-16 02:56 -43.15444 -69.61326 25905 ft 409 kts 328°
2026-04-16 02:57 -43.13032 -69.63283 25430 ft 402 kts 328°
2026-04-16 02:57 -43.10636 -69.65227 24954 ft 395 kts 329°
2026-04-16 02:57 -43.08314 -69.67108 24437 ft 384 kts 329°
2026-04-16 02:57 -43.06061 -69.68932 23968 ft 366 kts 329°
2026-04-16 02:58 -43.03939 -69.70649 23510 ft 351 kts 329°
2026-04-16 02:58 -43.01878 -69.72321 23043 ft 337 kts 328°
2026-04-16 02:58 -43.00116 -69.74289 22601 ft 324 kts 312°
2026-04-16 02:58 -42.98920 -69.76833 22178 ft 316 kts 295°
2026-04-16 02:59 -42.98361 -69.79681 21762 ft 310 kts 283°
2026-04-16 02:59 -42.98049 -69.82534 21316 ft 302 kts 282°
2026-04-16 02:59 -42.97776 -69.85324 20868 ft 295 kts 282°
2026-04-16 02:59 -42.97539 -69.88068 20420 ft 289 kts 281°
2026-04-16 03:00 -42.97324 -69.90775 19969 ft 283 kts 281°
2026-04-16 03:00 -42.97126 -69.93373 19539 ft 277 kts 280°
2026-04-16 03:00 -42.96936 -69.95958 19158 ft 268 kts 281°
2026-04-16 03:00 -42.96760 -69.98418 18780 ft 257 kts 281°
2026-04-16 03:01 -42.96587 -70.00819 18323 ft 250 kts 281°
2026-04-16 03:01 -42.96422 -70.03125 17951 ft 239 kts 280°
2026-04-16 03:01 -42.96267 -70.05312 17602 ft 229 kts 281°
2026-04-16 03:01 -42.96115 -70.07437 17153 ft 223 kts 281°
2026-04-16 03:02 -42.95967 -70.09496 16713 ft 219 kts 281°
2026-04-16 03:02 -42.95819 -70.11549 16261 ft 216 kts 281°
2026-04-16 03:02 -42.95672 -70.13588 15822 ft 217 kts 281°
2026-04-16 03:02 -42.95525 -70.15611 15391 ft 218 kts 280°
2026-04-16 03:03 -42.95377 -70.17661 14951 ft 218 kts 280°
2026-04-16 03:03 -42.95228 -70.19725 14502 ft 217 kts 280°
2026-04-16 03:03 -42.95082 -70.21742 14058 ft 215 kts 279°
2026-04-16 03:03 -42.94937 -70.23750 13611 ft 212 kts 279°
2026-04-16 03:04 -42.94793 -70.25736 13168 ft 211 kts 279°
2026-04-16 03:04 -42.94648 -70.27716 12728 ft 209 kts 279°
2026-04-16 03:04 -42.94506 -70.29665 12290 ft 207 kts 279°
2026-04-16 03:04 -42.94365 -70.31584 11857 ft 205 kts 279°
2026-04-16 03:05 -42.94225 -70.33499 11416 ft 202 kts 279°
2026-04-16 03:05 -42.94085 -70.35400 10965 ft 200 kts 279°
2026-04-16 03:05 -42.93948 -70.37262 10518 ft 198 kts 279°
2026-04-16 03:05 -42.93810 -70.39123 10066 ft 197 kts 279°
2026-04-16 03:06 -42.93675 -70.40955 9629 ft 194 kts 279°
2026-04-16 03:06 -42.93470 -70.42745 9167 ft 191 kts 289°
2026-04-16 03:06 -42.92520 -70.46105 8280 ft 190 kts 294°
2026-04-16 03:07 -42.92047 -70.47754 7841 ft 190 kts 294°
2026-04-16 03:07 -42.91560 -70.49442 7389 ft 192 kts 294°
2026-04-16 03:07 -42.91076 -70.51123 6938 ft 193 kts 294°
2026-04-16 03:07 -42.90587 -70.52813 6489 ft 193 kts 294°
2026-04-16 03:08 -42.90103 -70.54487 6162 ft 185 kts 294°
2026-04-16 03:08 -42.89641 -70.56087 6169 ft 179 kts 294°
2026-04-16 03:08 -42.89165 -70.57716 6194 ft 193 kts 294°
2026-04-16 03:08 -42.88670 -70.59421 6177 ft 194 kts 294°
2026-04-16 03:09 -42.88177 -70.61121 6173 ft 192 kts 294°
2026-04-16 03:09 -42.87685 -70.62819 6176 ft 192 kts 294°
2026-04-16 03:09 -42.87191 -70.64515 6177 ft 194 kts 294°
2026-04-16 03:09 -42.86698 -70.66209 6177 ft 193 kts 294°
2026-04-16 03:10 -42.86200 -70.67920 6173 ft 195 kts 294°
2026-04-16 03:10 -42.85696 -70.69647 6164 ft 195 kts 294°
2026-04-16 03:10 -42.85200 -70.71352 6162 ft 193 kts 294°
2026-04-16 03:10 -42.84705 -70.73048 6163 ft 192 kts 295°
2026-04-16 03:11 -42.84213 -70.74734 6163 ft 193 kts 294°
2026-04-16 03:11 -42.83676 -70.76409 6159 ft 194 kts 299°
2026-04-16 03:11 -42.83016 -70.78009 6164 ft 194 kts 301°
2026-04-16 03:11 -42.82355 -70.79603 6158 ft 195 kts 301°
2026-04-16 03:12 -42.81690 -70.81209 6158 ft 195 kts 301°
2026-04-16 03:12 -42.81025 -70.82809 6159 ft 194 kts 301°
2026-04-16 03:12 -42.80364 -70.84407 6162 ft 193 kts 301°
2026-04-16 03:12 -42.79710 -70.85987 6169 ft 193 kts 301°
2026-04-16 03:13 -42.79053 -70.87575 6172 ft 192 kts 301°
2026-04-16 03:13 -42.78531 -70.89251 6138 ft 197 kts 280°
2026-04-16 03:13 -42.78918 -70.91018 6171 ft 206 kts 238°
2026-04-16 03:13 -42.79893 -70.92516 6040 ft 218 kts 233°
2026-04-16 03:14 -42.80830 -70.94094 5770 ft 206 kts 236°
2026-04-16 03:14 -42.81657 -70.95610 5488 ft 195 kts 237°
2026-04-16 03:14 -42.82422 -70.97084 5219 ft 186 kts 239°
2026-04-16 03:14 -42.83129 -70.98492 4968 ft 178 kts 239°
2026-04-16 03:15 -42.83804 -70.99863 4725 ft 170 kts 239°
2026-04-16 03:15 -42.84446 -71.01180 4494 ft 163 kts 239°
2026-04-16 03:15 -42.85044 -71.02415 4267 ft 152 kts 240°
2026-04-16 03:15 -42.85628 -71.03633 4109 ft 155 kts 239°
2026-04-16 03:16 -42.86221 -71.04871 3908 ft 156 kts 239°
2026-04-16 03:16 -42.86794 -71.06062 3677 ft 147 kts 239°
2026-04-16 03:16 -42.87345 -71.07213 3479 ft 144 kts 239°
2026-04-16 03:16 -42.87886 -71.08353 3287 ft 143 kts 239°
2026-04-16 03:17 -42.88440 -71.09466 3078 ft 140 kts 234°
2026-04-16 03:17 -42.89013 -71.10545 2853 ft 137 kts 237°
2026-04-16 03:17 -42.89510 -71.11603 2737 ft 129 kts 243°
2026-04-16 03:17 -42.89945 -71.12647 2608 ft 123 kts 237°
2026-04-16 03:18 -42.90377 -71.13545 2603 ft 94 kts 239°
2026-04-16 03:18 -42.90663 -71.14119 2615 ft 56 kts 241°
2026-04-16 03:18 -42.90721 -71.14305 2621 ft 12 kts 270°
2026-04-16 03:18 -42.90726 -71.14343 2622 ft 6 kts 256°
2026-04-16 03:19 -42.90739 -71.14417 2624 ft 7 kts 256°
2026-04-16 03:19 -42.90748 -71.14481 2625 ft 6 kts 262°
2026-04-16 03:19 -42.90751 -71.14534 2626 ft 4 kts 277°
2026-04-16 03:19 -42.90736 -71.14567 2627 ft 4 kts 319°
2026-04-16 03:20 -42.90707 -71.14596 2627 ft 5 kts 326°
2026-04-16 03:20 -42.90676 -71.14619 2628 ft 4 kts 352°
2026-04-16 03:20 -42.90648 -71.14604 2628 ft 5 kts 34°
2026-04-16 03:20 -42.90636 -71.14595 2628 ft 0 kts 25°